Location: Kellogg
(38.0159°N, 90.0546°W)
Time: 21:09:29
(UTC+00:00)

Transit 4A - Pass Details

Date: 11 September 2024
Orbit: 864 x 978 km, 66.8° (Epoch: 12 October)

Event Time Altitude Azimuth Distance (km) Brightness Sun altitude
Rises 09:17:15 0° 200° (SSW) 3,431 - -27.2°
Reaches altitude 10° 09:19:42 10° 198° (SSW) 2,503 - -26.8°
Exits shadow 09:24:08 53° 179° (S) 1,060 7.9 -26.0°
Maximum altitude 09:25:27 73° 115° (ESE) 920 7.9 -25.8°
Drops below altitude 10° 09:31:21 10° 32° (NNE) 2,569 11.0 -24.8°
Sets 09:33:53 0° 31° (NNE) 3,530 11.8 -24.4°
